Lid_Strength_Index
9 8 9 12 15 11 16 15 18 16 13 10 8 8 7 7 6 6 5 5 4 4 3 3 3 2 2 2 2 1 1 1
9 8 9 10 9 15 14 20 21 18 16 15 11 10 8 8 7 6 5 5 4 4 3 3 2 2 2 1 2 1 1 1
11 12 13 13 14 14 12 14 19 20 17 10 10 10 9 8 7 6 5 5 4 4 3 3 2 2 2 2 2 1 1 1
12 10 10 12 13 13 14 14 15 16 14 9 9 8 8 7 7 6 5 5 4 4 3 3 3 2 2 2 2 1 1 1
14 12 11 12 12 14 15 14 14 15 14 9 8 9 8 7 6 6 5 5 4 4 4 4 3 3 2 2 2 1 1 1
16 14 12 14 12 12 15 15 15 14 15 12 10 10 9 8 7 6 6 5 5 4 4 3 3 3 2 2 1 1 1 1
13 11 12 13 13 13 15 15 14 13 14 12 10 9 8 7 7 6 6 6 5 5 4 4 3 3 2 2 2 1 2 2
14 11 11 13 12 12 12 12 13 13 13 9 8 7 8 8 7 7 7 6 5 4 4 4 3 3 2 2 2 1 2 2
16 13 13 15 13 12 12 11 12 15 12 9 9 9 8 8 7 7 6 6 5 5 4 4 3 3 3 2 2 2 2 2
16 15 20 13 9 9 11 11 10 10 10 9 8 7 7 6 6 6 6 5 5 4 4 3 2 3 2 2 2 2 2 2
16 17 14 12 10 11 12 13 9 10 9 8 7 7 7 5 5 5 6 5 4 3 3 3 2 2 2 2 2 2 3 2
15 18 19 13 9 7 8 15 8 8 8 8 8 12 9 6 6 6 5 5 5 3 3 3 2 2 2 3 3 3 2 2
15 17 14 9 8 7 15 13 8 7 8 8 9 8 6 5 6 6 6 7 5 4 4 4 2 2 3 3 3 2 1 1
15 18 17 8 8 12 9 7 7 7 7 7 6 6 6 6 6 6 7 6 6 7 6 5 3 2 3 4 3 2 1 2
13 13 9 7 8 6 6 7 7 7 6 6 6 6 6 6 6 6 6 7 6 6 7 6 5 4 5 4 4 3 4 5
11 9 8 7 6 6 6 6 5 5 5 5 6 5 6 6 5 6 6 6 6 6 7 7 6 5 5 5 5 6 7 7
11 9 8 7 6 6 5 5 5 5 5 5 5 6 6 6 6 6 6 7 6 6 6 6 6 5 5 5 5 7 7 8
12 8 8 7 6 5 6 6 5 5 5 4 5 5 5 6 5 5 6 6 6 6 6 6 7 6 6 6 4 5 6 7
7 7 7 6 5 3 5 5 4 4 4 5 4 5 5 5 5 5 5 5 6 6 6 6 6 6 6 4 5 5 5 8